Location: Hackbridge
(51.3833°N, 0.1500°W)
Time: 00:09:29
(UTC+00:00)

STARLINK-28 - Pass Details

Date: 13 October 2019
Orbit: 549 x 551 km, 53.0° (Epoch: 19 November)

Event Time Altitude Azimuth Distance (km) Brightness Sun altitude
Rises 19:48:45 0° 252° (WSW) 2,715 7.9 -24.9°
Reaches altitude 10° 19:50:59 10° 253° (WSW) 1,824 6.9 -25.2°
Enters shadow 19:54:08 51° 253° (WSW) 696 4.3 -25.7°
